www.pogodaiklimat.ru

Погода и климат >> Архив погоды >> Россия >> Челябинская область >> Карталы


ПОГОДА в Карталы

  • Прогноз погоды в Карталы
  • Монитор погоды в Карталы

АРХИВ ПОГОДЫ в Карталы

Время (UTC), дата Ветер
(напр.,м/с)
 
Видим.   Явления Облачность Т
(С)
Тd
(С)
f
(%)
Тe
(С)
Тes
(С)
Комфортность P
(гПа)
Po
(гПа)
Тmin
(С)
Tmax
(С)
R
(мм)
R24
(мм)
S
(см)
03 16.09 ЮВ 2 20 км 10/0
[Ac trans]
+12.6 +4.4 57 +12 +12 1008.5 973.1 +11.8
06 16.09 З 4 20 км 8/1 600 м
[Cu hum Ac As]
+17.1 +5.9 48 +17 +19 1008.1 973.2
09 16.09 З 4
{10}
20 км 8/8
[Cb calv]
+17.0 +4.0 42 +17 +18 1008.0 973.1
12 16.09 З 4
{11}
20 км 6/3 600 м
[Cb calv Ci fib]
+16.4 +1.7 37 +16 +17 1008.5 973.5
15 16.09 З 5-10
{10}
20 км 10/4 600 м
[Cb calv Ac As]
+13.4 +1.7 45 +12 +12 1009.6 974.2 +17.9
18 16.09 З 3
{10}
4000 м 4/0
[Ci fib]
+11.7 +2.8 54 +10 +10 1010.0 974.4
21 16.09 ЮЗ 3 20 км 10/0
[Ac As]
+10.6 +3.2 60 +9 +9 1009.8 974.1
00 17.09 Ю 4 20 км 10/0
[Ac As]
+10.2 +2.7 60 +8 +8 1008.8 973.0
03 17.09 ЮЗ 6-11
{12}
20 км 10/3 600 м
[Cb calv Ac As]
+11.7 +1.7 50 +9 +9 1007.7 972.2 +10.1
06 17.09 ЮЗ 5
{12}
20 км 10/0
[Ac As]
+14.2 -0.6 36 +13 +14 1007.2 972.0
09 17.09 ЮЗ 6-12
{16}
20 км 8/1 600 м
[Cu med, cong Ac trans]
+19.5 +0.8 29 +19 +21 1006.2 971.7
12 17.09 ЮЗ 6-11
{16}
20 км 9/9 600 м
[Cb calv]
+19.4 +2.1 32 +19 +19 1006.1 971.5
15 17.09 Ю 2
{11}
20 км 10/10 600 м
[Cb calv]
+17.0 +2.4 37 +17 +17 1007.1 972.2 +20.2
18 17.09 Ю 2 20 км 10/6 600 м
[Cb cap Ac As]
+15.4 +2.3 41 +15 +15 1007.1 972.1
21 17.09 ЮЗ 1 20 км 10/0
[Ac und]
+13.8 +2.9 48 +14 +14 1006.5 971.3
00 18.09 Ю 3 4000 м 8/0
[Ac trans]
+14.5 +0.8 39 +14 +14 1004.4 969.3
03 18.09 Ю 4 10 км 8/3 600 м
[Cb cap Ac trans]
+15.2 +1.3 39 +14 +15 1003.8 968.8 +12.8
06 18.09 ЮЗ 4
{10}
10 км 10/6 600 м
[Cb cap Ac As]
+19.8 +5.0 38 +20 +21 1002.9 968.5
09 18.09 ЮЗ 5-10
{12}
10 км {ливн. осадки} 10/8 600 м
[Cb cap Ac As]
+15.6 +7.6 59 +14 +15 1003.9 969.0
12 18.09 ЮЗ 4
{11}
10 км {ливн. осадки} 10/4 600 м
[Cb cap Ac As]
+15.8 +11.8 77 +15 +15 1003.9 969.1
15 18.09 З 2 10 км 10/6 600 м
[Cb cap Ac As]
+13.7 +9.6 76 +13 +13 1005.5 970.3 +19.9 0.4
18 18.09 З 2 4000 м ясно +9.6 +7.4 86 +8 +8 1007.2 971.5
21 18.09 З 1 4000 м ясно +8.5 +6.6 88 +8 +8 1007.2 971.3
00 19.09 Ю 2 4000 м 10/0
[Cs]
+7.4 +6.3 93 +5 +5 1005.7 969.8
03 19.09 Ю 5-10
{10}
20 км 10/6 600 м
[Cb calv Ac As]
+10.7 +7.9 83 +8 +8 1001.8 966.4 +7.3
06 19.09 Ю 7-15
{16}
20 км в посл. час ливневой дождь 10/6 600 м
[Cb calv Ac trans]
+15.5 +11.1 75 +14 +14 996.9 962.3
09 19.09 ЮЗ 9-18
{18}
20 км {ливн. осадки} 4/4 600 м
[Cu med, cong]
+17.1 +4.4 43 +16 +16 996.3 961.8
12 19.09 ЮЗ 10-22
{23}
20 км {ливн. осадки} 4/4 600 м
[Cu med, cong]
+14.8 -2.8 30 +13 +13 998.0 963.2
15 19.09 З 8-16
{23}
20 км ясно +10.1 +1.4 55 +6 +6 1001.7 966.1 +17.3 0.5
18 19.09 З 6-12
{19}
4000 м ясно +9.1 +2.4 63 +6 +6 1006.1 970.3
21 19.09 З 3
{12}
4000 м ясно +7.4 +2.4 71 +5 +5 1009.5 973.3
00 20.09 ЮЗ 3 4000 м ясно +6.1 +2.2 76 +3 +3 1011.8 975.5
03 20.09 ЮЗ 4 20 км ясно +6.4 +3.4 81 +3 +3 1013.2 976.8 +5.2
06 20.09 З 4 20 км 8/8 600 м
[Cb calv]
+12.5 +2.4 50 +11 +12 1014.0 978.3
09 20.09 З 4
{12}
20 км 8/5 600 м
[Cb calv Ac trans]
+13.6 +0.9 42 +12 +14 1014.6 979.0
12 20.09 З 4
{11}
20 км 6/6 600 м
[Cb cap]
+14.6 -0.0 37 +14 +14 1014.6 979.1
15 20.09 З 2 20 км 3/0
[Ac trans]
+9.3 +0.5 54 +8 +8 1016.6 980.5 +14.8
18 20.09 З 1 20 км ясно +4.8 +0.4 73 +4 +4 1018.3 981.5
21 20.09 З 1 4000 м ясно +1.7 +0.2 90 -0 -0 1019.2 982.0
00 21.09 З 1 4000 м ясно +0.3 -0.6 94 -2 -2 1019.4 982.0
03 21.09 Ю 1 20 км 10/0
[Ac As]
+2.2 +1.1 92 0 +1 1018.4 981.3 -0.4
06 21.09 Ю 2 10 км слаб. дождь 10/0 600 м
[As op]
+8.5 +4.4 75 +7 +8 1017.2 981.0
09 21.09 СВ 1 4000 м слаб. дождь 10/0 600 м
[As op]
+7.5 +6.6 94 +6 +8 1015.1 978.8
12 21.09 В 3 4000 м дождь 10/0 600 м
[As op]
+6.9 +6.3 96 +4 +4 1011.8 975.6
15 21.09 В 3 4000 м слаб. дождь 10/0 600 м
[As op]
+6.9 +6.2 95 +4 +4 1007.2 971.2 +8.9 10
18 21.09 В 1 2000 м дождь 10/0 600 м
[As op]
+7.0 +6.4 96 +6 +6 1003.1 967.3
21 21.09 С 2 2000 м дождь 10/0 600 м
[As op]
+6.6 +6.0 96 +4 +4 1000.0 964.2
00 22.09 СЗ 3 2000 м дождь 10/0 600 м
[As op]
+6.1 +5.6 97 +3 +3 998.0 962.2
03 22.09 СЗ 2 10 км {дождь} 10/10 600 м
[Sc]
+6.0 +5.4 96 +3 +3 998.2 962.4 +5.8 14
06 22.09 СЗ 5 10 км {дождь} 10/10 600 м
[Sc]
+6.7 +4.1 83 +3 +3 999.6 963.8 +5.5
09 22.09 З 4 10 км 8/8 600 м
[Cb cap]
+8.7 +4.6 75 +6 +7 1000.7 965.1
12 22.09 З 5
{10}
10 км 1/1 600 м
[Cb cap]
+10.7 -0.4 46 +8 +9 1001.4 966.0
15 22.09 СЗ 2 20 км ясно +5.1 -1.6 62 +3 +3 1004.4 968.1 +11.3 0.3
18 22.09 З 1 20 км ясно +0.5 -1.4 87 -1 -1 1005.8 968.9
21 22.09 Ю 2 4000 м 6/0
[Ac trans]
+1.4 -0.8 85 -2 -2 1005.3 968.5

 

Местоположение метеостанции Карталы (Челябинская область, Россия): широта 53.05 долгота 60.67 высота над уровнем моря 300 м.

В архиве по умолчанию представлена погода в Карталы за последнюю неделю. Архивные данные за месяц целиком и за предыдущие месяцы, начиная с января 2011 года, Вы можете получить, выбрав интересующий диапазон дат из раскрывающегося списка и нажав кнопку "Ввод!".


*Определитесь, кто Вы:
робот инопланетянин человек

Внимание! Время в таблицах - всемирное. Для получения местного времени необходимо прибавить поправку, которая равна 5 ч.

Смотрите также архив погоды в соседних городах и на ближайших метеорологических станциях:

Погода в Аршалынском (Акмолинская область, Казахстан) (51 км)
Погода в Бредах (Челябинская область, Россия) (72 км)
Погода в Михайловке (Костанайская область, Казахстан) (90 км)
Погода в Житикаре (Костанайская область, Казахстан) (94 км)
Погода в Магнитогорске (Челябинская область, Россия) (111 км)
Погода в Карабалыке (Костанайская область, Казахстан) (125 км)
Погода в Кизильском (Челябинская область, Россия) (126 км)
Погода в Троицке (Челябинская область, Россия) (131 км)
Погода в Айдырля (Оренбургская область, Россия) (134 км)
Погода в Верхнеуральске (Челябинская область, Россия) (134 км)

Пояснения к столбцам:

Ветер - указаны скорость ветра в м/с - средняя за 10 мин, порывы в срок и между сроками (в фигурных скобках) и направление, откуда дует ветер: С - северный, СВ - северо-восточный, В - восточный, ЮВ - юго-восточный, Ю - южный, ЮЗ - юго-западный, З - западный, СЗ - северо-западный.
Видимость - горизонтальная дальность видимости в метрах или километрах. При видимости от 1 до 10 км при отсутствии осадков обычно наблюдается дымка, при ухудшении видимости до 1 км и менее - туман. В сухую погоду видимость может ухудшаться дымом, пылью или мглою.
Явления - указаны атмосферные явления, наблюдавшиеся в срок или в последний час перед сроком; фигурными скобками обозначены явления, наблюдавшиеся между сроками (за 1-3 часа до срока); квадратными скобками обозначены град или гололедные отложения с указанием их диаметра в мм.
Облачность - указаны через наклонную черту общая и нижняя облачность в баллах и высота нижней границы облаков в метрах; квадратными скобками обозначены формы облаков: Ci - перистые, Cs - перисто-слоистые, Cc - перисто-кучевые, Ac - высококучевые, As - высокослоистые, Sc - слоисто-кучевые, Ns - слоисто-дождевые, Cu - кучевые, Cb - кучево-дождевые. Подробнее классификацию облаков см. в Атласе облаков (PDF).
T - Температура воздуха - температура, измеренная на высоте 2 м над землей.
Td - Температура точки росы - температура, при понижении до которой содержащийся в воздухе водяной пар достигнет насыщения.
f - Относительная влажность воздуха - влажноcть воздуха, измеренная на высоте 2 м над землей.
Te - Эффективная температура - температура, которую ощущает одетый по сезону человек в тени. Характеристика душности погоды. При расчете учитывается влияние влажности воздуха и скорости ветра на теплоощущения человека.
Tes - Эффективная температура на солнце - температура, которую ощущает человек, с поправкой на солнечный нагрев. Характеристика знойности погоды. Зависит от высоты солнца над горизонтом, облачности и скорости ветра. Ночью, в пасмурную погоду, а также при ветре 12 м/с и более поправка равна нулю.
P - Атмосферное давление - приведенное к уровню моря атмосферное давление.
Po - Атмосферное давление - измеренное на уровне метеостанции атмосферное давление.
Tmin - Минимальная температура - минимум температуры воздуха на высоте 2 м над землей.
Tmax - Максимальная температура - максимум температуры воздуха на высоте 2 м над землей.
R - Количество осадков - Количество выпавших осадков за период времени, мм. При наведении курсора мыши на число - период времени, за который выпало указанное количество осадков.
R24 - Количество осадков - Количество выпавших осадков за 24 часа, мм.
S - Снежный покров - Высота снежного покрова, см. При наведении курсора мыши на число - состояние снежного покрова и степень покрытия местности в баллах.